FW6574 Weather Reports


time (UTC)temp
C
wind
direction
speed
KPH
gust
KPH
rain 1hr
cm
rain 24hr
cm
rain mn
cm
humidity
%
barometer
mb
20260502160513 12 0 1.6 14.5 0.00 0.00 0.00 43 1014.5
20260502152015 11 0 0.0 6.4 0.00 0.00 0.00 47 1015.0
20260502151548 11 235 1.6 6.4 0.00 0.00 0.00 48 1014.9
20260502151015 11 294 0.0 6.4 0.00 0.00 0.00 51 1014.8
20260502150513 11 0 1.6 6.4 0.00 0.00 0.00 50 1014.9
20260502130515 8 360 3.2 9.7 0.00 0.00 0.00 56 1014.7
20260502123515 8 360 1.6 6.4 0.00 0.00 0.00 57 1014.6
20260502123038 8 360 1.6 6.4 0.00 0.00 0.00 59 1014.7
20260502122512 8 360 1.6 6.4 0.00 0.00 0.00 58 1014.6
20260502122015 8 0 0.0 6.4 0.00 0.00 0.00 59 1014.7
20260502121532 8 360 1.6 6.4 0.00 0.00 0.00 58 1014.6
20260502121012 8 360 0.0 3.2 0.00 0.00 0.00 57 1014.6
20260502120517 8 0 0.0 3.2 0.00 0.00 0.00 63 1014.7
20260502115514 8 0 0.0 6.4 0.00 0.00 0.00 59 1014.7
20260502115013 8 0 0.0 8.0 0.00 0.00 0.00 62 1014.6
20260502114533 8 0 1.6 14.5 0.00 0.00 0.00 59 1014.6
20260502114013 8 360 0.0 14.5 0.00 0.00 0.00 60 1014.5
20260502113516 8 360 0.0 4.8 0.00 0.00 0.00 61 1014.2
20260502113033 8 360 0.0 4.8 0.00 0.00 0.00 63 1014.3
20260502112512 8 0 0.0 3.2 0.00 0.00 0.00 63 1014.2
20260502112012 8 0 0.0 3.2 0.00 0.00 0.00 59 1014.3
20260502111535 8 0 0.0 4.8 0.00 0.00 0.00 63 1014.3
20260502111012 8 0 0.0 4.8 0.00 0.00 0.00 61 1014.3
20260502110514 8 0 0.0 4.8 0.00 0.00 0.00 62 1014.3
20260502110033 7 0 0.0 9.7 0.00 0.00 0.00 62 1014.1
20260502105512 7 0 0.0 9.7 0.00 0.00 0.00 65 1014.0
20260502105017 7 0 0.0 4.8 0.00 0.00 0.00 65 1014.1
20260502104535 7 0 0.0 0.0 0.00 0.00 0.00 69 1014.0
20260502104015 7 0 0.0 0.0 0.00 0.00 0.00 68 1014.3
20260502103512 7 0 0.0 0.0 0.00 0.00 0.00 71 1014.2
20260502103030 7 0 0.0 0.0 0.00 0.00 0.00 73 1014.3
20260502102519 7 0 0.0 0.0 0.00 0.00 0.00 69 1014.3
20260502102016 7 0 0.0 0.0 0.00 0.00 0.00 70 1014.2
20260502101530 7 0 0.0 0.0 0.00 0.00 0.00 68 1014.3
20260502101014 7 0 0.0 0.0 0.00 0.00 0.00 70 1014.4
20260502100514 7 0 0.0 0.0 0.00 0.00 0.00 69 1014.3
20260502091531 9 0 0.0 4.8 0.00 0.00 0.00 63 1014.1
20260502091015 9 360 1.6 4.8 0.00 0.00 0.00 57 1014.0
20260502090515 9 0 1.6 4.8 0.00 0.00 0.00 58 1014.0
20260502071012 10 0 0.0 4.8 0.00 0.00 0.00 72 1013.8
20260502070515 10 0 0.0 4.8 0.00 0.00 0.00 73 1013.9
20260502070034 9 360 0.0 4.8 0.00 0.00 0.00 76 1013.8
20260502065515 9 0 0.0 3.2 0.00 0.00 0.00 75 1013.8
20260502065013 9 0 0.0 3.2 0.00 0.00 0.00 74 1013.9
20260502064535 9 0 0.0 3.2 0.00 0.00 0.00 75 1013.7
20260502064021 9 0 0.0 0.0 0.00 0.00 0.00 75 1013.7
20260502063515 9 0 0.0 0.0 0.00 0.00 0.00 75 1013.9
20260502063034 9 0 0.0 3.2 0.00 0.00 0.00 73 1014.0
20260502062515 9 0 0.0 3.2 0.00 0.00 0.00 76 1013.9
20260502062012 9 0 0.0 3.2 0.00 0.00 0.00 75 1014.0
20260502061538 9 0 0.0 0.0 0.00 0.00 0.00 75 1014.0
20260502061012 9 0 0.0 0.0 0.00 0.00 0.00 72 1014.1
20260502060512 9 0 0.0 6.4 0.00 0.00 0.00 75 1014.2
20260502060032 10 0 0.0 6.4 0.00 0.00 0.00 74 1014.1
20260502055515 10 84 0.0 3.2 0.00 0.00 0.00 73 1014.1
20260502055013 10 0 0.0 3.2 0.00 0.00 0.00 72 1014.0
20260502054532 10 0 0.0 0.0 0.00 0.00 0.00 72 1013.9
20260502054017 10 0 0.0 0.0 0.00 0.00 0.00 70 1013.8
20260502053512 10 0 0.0 0.0 0.00 0.00 0.00 69 1013.8
20260502053032 11 0 0.0 6.4 0.00 0.00 0.00 65 1013.9
20260502052513 11 0 0.0 6.4 0.00 0.00 0.00 65 1013.9
20260502052015 11 360 0.0 4.8 0.00 0.00 0.00 66 1013.9
20260502051534 11 360 0.0 3.2 0.00 0.00 0.00 65 1013.9
20260502051012 11 0 0.0 3.2 0.00 0.00 0.00 63 1013.8
20260502050521 11 360 0.0 3.2 0.00 0.00 0.00 64 1014.0
20260502050031 11 0 0.0 3.2 0.00 0.00 0.00 65 1013.9
20260502045513 11 0 0.0 8.0 0.00 0.00 0.00 63 1014.0
20260502045013 12 0 0.0 8.0 0.00 0.00 0.00 63 1014.0
20260502044533 12 360 1.6 6.4 0.00 0.00 0.00 63 1014.0
20260502044017 12 0 1.6 6.4 0.00 0.00 0.00 63 1014.0
20260502043512 12 0 0.0 6.4 0.00 0.00 0.00 64 1013.8
20260502043032 12 360 1.6 6.4 0.00 0.00 0.00 63 1013.8
20260502042514 12 0 1.6 6.4 0.00 0.00 0.00 64 1014.0
20260502042018 12 0 1.6 6.4 0.00 0.00 0.00 64 1013.9
20260502041533 12 360 0.0 6.4 0.00 0.00 0.00 64 1013.8
20260502041014 12 360 1.6 6.4 0.00 0.00 0.00 65 1013.7
20260502040515 12 0 1.6 8.0 0.00 0.00 0.00 65 1013.8
20260502040037 12 360 1.6 8.0 0.00 0.00 0.00 63 1013.7
20260502035513 12 360 0.0 6.4 0.00 0.00 0.00 64 1013.7
20260502035016 12 360 3.2 6.4 0.00 0.00 0.00 64 1013.7
20260502034532 12 360 0.0 9.7 0.00 0.00 0.00 66 1013.7
20260502034015 13 360 1.6 9.7 0.00 0.00 0.00 64 1013.6
20260502033512 12 0 0.0 3.2 0.00 0.00 0.00 65 1013.7
20260502033032 13 0 0.0 3.2 0.00 0.00 0.00 66 1013.7
20260502032514 13 0 0.0 3.2 0.00 0.00 0.00 65 1013.7
20260502032014 13 0 0.0 3.2 0.00 0.00 0.00 65 1013.5
20260502031535 13 360 0.0 4.8 0.00 0.00 0.00 64 1013.6
20260502031015 13 360 1.6 4.8 0.00 0.00 0.00 65 1013.5
20260502030515 13 0 0.0 4.8 0.00 0.00 0.00 64 1013.4
20260502030032 13 0 0.0 6.4 0.00 0.00 0.00 64 1013.5
20260502025512 13 360 1.6 6.4 0.00 0.00 0.00 63 1013.6
20260502025014 13 0 1.6 6.4 0.00 0.00 0.00 63 1013.4
20260502024532 13 360 1.6 4.8 0.00 0.00 0.00 63 1013.4
20260502024018 13 0 0.0 3.2 0.00 0.00 0.00 64 1013.3
20260502023514 13 0 0.0 4.8 0.00 0.00 0.00 63 1013.2
20260502023031 13 0 0.0 6.4 0.00 0.00 0.00 64 1013.1
20260502022513 13 0 0.0 6.4 0.00 0.00 0.00 61 1013.0
20260502022014 13 360 0.0 6.4 0.00 0.00 0.00 62 1012.8
20260502021531 13 0 0.0 6.4 0.00 0.00 0.00 62 1012.7
20260502021017 13 360 0.0 6.4 0.00 0.00 0.00 64 1012.4
20260502020515 12 360 0.0 6.4 0.00 0.00 0.00 69 1012.1
20260502020032 12 0 0.0 6.4 0.00 0.00 0.00 72 1012.0
20260502015513 12 0 0.0 3.2 0.00 0.00 0.00 79 1012.0
20260502015013 12 0 0.0 0.0 0.00 0.00 0.00 79 1012.0
20260502014533 12 0 0.0 1.6 0.00 0.00 0.00 79 1011.9
20260502014013 12 0 0.0 1.6 0.00 0.00 0.00 79 1011.9
20260502013513 12 0 0.0 1.6 0.00 0.00 0.00 79 1011.7
20260502013032 12 0 0.0 0.0 0.00 0.00 0.00 78 1011.8
20260502012514 12 0 0.0 0.0 0.00 0.00 0.00 77 1011.5
20260502012014 13 0 0.0 0.0 0.00 0.00 0.00 77 1011.4
20260502011533 13 0 0.0 0.0 0.00 0.00 0.00 76 1011.2
20260502011013 13 0 0.0 0.0 0.00 0.00 0.00 74 1011.2
20260502010512 13 0 0.0 0.0 0.00 0.00 0.00 75 1010.9
20260502010031 13 0 0.0 0.0 0.00 0.00 0.00 73 1011.0
20260502005515 13 0 0.0 0.0 0.00 0.00 0.00 72 1010.9
20260502005017 14 0 0.0 0.0 0.00 0.00 0.00 71 1010.6
20260502004530 14 0 0.0 0.0 0.00 0.00 0.00 70 1010.7
20260502004013 14 0 0.0 0.0 0.00 0.00 0.00 69 1010.5
20260502003513 14 0 0.0 0.0 0.00 0.00 0.00 70 1010.4
20260502003030 15 0 0.0 0.0 0.00 0.00 0.00 69 1010.4
20260502002513 15 0 0.0 0.0 0.00 0.00 0.00 68 1010.4
20260502002014 15 0 0.0 3.2 0.00 0.00 0.00 67 1010.2
20260502001532 15 0 0.0 3.2 0.00 0.00 0.00 63 1010.1
20260502001014 15 0 0.0 3.2 0.00 0.00 0.00 64 1010.2
20260502000512 15 0 0.0 0.0 0.00 0.00 0.00 64 1010.1
20260502000036 16 0 0.0 0.0 0.00 0.00 0.00 63 1009.9
20260501235513 16 0 0.0 1.6 0.00 0.00 0.00 60 1009.8
20260501235013 16 0 0.0 1.6 0.00 0.00 0.00 61 1009.7
20260501234531 16 0 0.0 3.2 0.00 0.00 0.00 58 1009.8
20260501234013 16 0 0.0 3.2 0.00 0.00 0.00 57 1009.8
20260501233513 16 55 0.0 3.2 0.00 0.00 0.00 56 1009.7
20260501233032 17 0 0.0 4.8 0.00 0.00 0.00 54 1009.7
20260501232515 17 0 0.0 4.8 0.00 0.00 0.00 55 1009.7
20260501232019 17 55 0.0 4.8 0.00 0.00 0.00 54 1009.6
20260501231530 17 0 0.0 0.0 0.00 0.00 0.00 55 1009.6
20260501231014 17 0 0.0 3.2 0.00 0.00 0.00 54 1009.6
20260501230514 17 0 0.0 4.8 0.00 0.00 0.00 51 1009.6
20260501230030 18 0 0.0 4.8 0.00 0.00 0.00 48 1009.4
20260501225515 18 77 0.0 4.8 0.00 0.00 0.00 48 1009.4
20260501225014 18 40 1.6 4.8 0.00 0.00 0.00 48 1009.5
20260501224533 18 72 0.0 4.8 0.00 0.00 0.00 50 1009.5
20260501224013 18 36 0.0 4.8 0.00 0.00 0.00 48 1009.5
20260501223514 18 339 1.6 4.8 0.00 0.00 0.00 48 1009.5
20260501223034 18 0 0.0 6.4 0.00 0.00 0.00 48 1009.5
20260501222517 18 24 0.0 8.0 0.00 0.00 0.00 49 1009.5
20260501222014 18 0 1.6 11.3 0.00 0.00 0.00 47 1009.5
20260501221534 18 59 3.2 11.3 0.00 0.00 0.00 47 1009.6
20260501221014 18 190 3.2 9.7 0.00 0.00 0.00 48 1009.6
20260501220511 18 25 0.0 11.3 0.00 0.00 0.00 49 1009.7
20260501220031 18 15 1.6 11.3 0.00 0.00 0.00 48 1009.7
20260501215514 18 113 3.2 11.3 0.00 0.00 0.00 47 1009.6
20260501215012 18 72 1.6 11.3 0.00 0.00 0.00 48 1009.8
20260501214529 17 0 1.6 11.3 0.00 0.00 0.00 49 1009.7
20260501214014 17 117 3.2 6.4 0.00 0.00 0.00 47 1009.8
20260501213513 17 0 0.0 16.1 0.00 0.00 0.00 47 1009.8
20260501213030 17 72 1.6 16.1 0.00 0.00 0.00 47 1009.9
20260501212513 17 315 3.2 9.7 0.00 0.00 0.00 46 1009.9
20260501212014 17 62 1.6 12.9 0.00 0.00 0.00 46 1010.0
20260501211537 18 101 1.6 12.9 0.00 0.00 0.00 47 1010.1
20260501211013 18 198 0.0 9.7 0.00 0.00 0.00 47 1009.9
20260501210513 17 273 1.6 11.3 0.00 0.00 0.00 46 1009.9
20260501210041 17 260 3.2 11.3 0.00 0.00 0.00 46 1010.0
20260501205516 17 0 0.0 6.4 0.00 0.00 0.00 49 1010.2
20260501205012 17 0 0.0 8.0 0.00 0.00 0.00 47 1010.3
20260501204552 17 0 1.6 8.0 0.00 0.00 0.00 49 1010.1
20260501204014 17 227 0.0 6.4 0.00 0.00 0.00 47 1010.2
20260501203514 18 0 0.0 6.4 0.00 0.00 0.00 47 1010.2
20260501203033 17 84 3.2 9.7 0.00 0.00 0.00 46 1010.3
20260501202517 17 88 1.6 9.7 0.00 0.00 0.00 48 1010.6
20260501202019 17 71 1.6 9.7 0.00 0.00 0.00 46 1010.6
20260501201532 18 328 1.6 9.7 0.00 0.00 0.00 45 1010.5
20260501201012 18 0 0.0 9.7 0.00 0.00 0.00 46 1010.6
20260501200515 20 101 1.6 6.4 0.00 0.00 0.00 42 1010.7
20260501200034 18 83 1.6 6.4 0.00 0.00 0.00 44 1010.9
20260501195516 18 0 0.0 8.0 0.00 0.00 0.00 45 1010.8
20260501195017 18 0 0.0 8.0 0.00 0.00 0.00 44 1010.9
20260501194533 19 88 1.6 11.3 0.00 0.00 0.00 45 1011.1
20260501194016 19 231 3.2 11.3 0.00 0.00 0.00 39 1011.4
20260501193516 20 0 1.6 14.5 0.00 0.00 0.00 43 1011.3
20260501193033 18 267 4.8 14.5 0.00 0.00 0.00 42 1011.6
20260501192513 19 0 0.0 9.7 0.00 0.00 0.00 42 1011.7
20260501192016 18 346 0.0 9.7 0.00 0.00 0.00 42 1011.9
20260501191535 18 0 4.8 12.9 0.00 0.00 0.00 42 1012.0
20260501191013 18 281 1.6 12.9 0.00 0.00 0.00 43 1012.0
20260501190519 18 219 4.8 12.9 0.00 0.00 0.00 42 1012.3
20260501190036 19 183 1.6 9.7 0.00 0.00 0.00 44 1012.1
20260501185514 18 121 3.2 9.7 0.00 0.00 0.00 42 1012.1
20260501185019 18 0 1.6 9.7 0.00 0.00 0.00 43 1012.2
20260501184532 18 0 0.0 8.0 0.00 0.00 0.00 44 1012.3
20260501184013 18 270 3.2 11.3 0.00 0.00 0.00 43 1012.4
20260501183517 18 258 3.2 11.3 0.00 0.00 0.00 43 1012.3
20260501183033 18 0 0.0 6.4 0.00 0.00 0.00 43 1012.4
20260501182518 17 321 3.2 8.0 0.00 0.00 0.00 44 1012.4
20260501182012 18 0 1.6 8.0 0.00 0.00 0.00 44 1012.4
20260501181534 18 159 1.6 8.0 0.00 0.00 0.00 45 1012.5
20260501181019 18 78 1.6 11.3 0.00 0.00 0.00 46 1012.8
20260501180514 17 327 1.6 14.5 0.00 0.00 0.00 45 1013.0
20260501180035 17 0 1.6 14.5 0.00 0.00 0.00 45 1013.0
20260501175516 17 256 4.8 14.5 0.00 0.00 0.00 43 1013.2
20260501175022 17 0 1.6 9.7 0.00 0.00 0.00 43 1013.2
20260501174604 17 245 3.2 8.0 0.00 0.00 0.00 44 1013.2
20260501174013 17 119 1.6 6.4 0.00 0.00 0.00 45 1013.2
20260501173516 17 360 3.2 6.4 0.00 0.00 0.00 44 1013.3
20260501173036 17 309 1.6 11.3 0.00 0.00 0.00 48 1013.5
20260501172518 17 0 1.6 11.3 0.00 0.00 0.00 44 1013.6
20260501172016 16 289 3.2 11.3 0.00 0.00 0.00 48 1013.7
20260501171534 16 256 4.8 11.3 0.00 0.00 0.00 47 1014.0
20260501171013 16 271 1.6 9.7 0.00 0.00 0.00 45 1014.0
20260501170514 16 61 1.6 14.5 0.00 0.00 0.00 47 1014.0
20260501170039 16 229 3.2 14.5 0.00 0.00 0.00 48 1014.2
20260501165517 16 260 1.6 16.1 0.00 0.00 0.00 47 1014.3
20260501165015 16 0 1.6 16.1 0.00 0.00 0.00 48 1014.3
20260501164533 16 300 1.6 11.3 0.00 0.00 0.00 49 1014.3
20260501164017 16 313 1.6 9.7 0.00 0.00 0.00 50 1014.3
20260501163518 16 0 1.6 6.4 0.00 0.00 0.00 47 1014.4
20260501163033 15 136 3.2 6.4 0.00 0.00 0.00 50 1014.6
20260501162513 15 0 0.0 6.4 0.00 0.00 0.00 49 1014.7
20260501162018 15 310 0.0 6.4 0.00 0.00 0.00 52 1014.7
20260501161532 15 252 0.0 4.8 0.00 0.00 0.00 51 1014.7
20260501161016 15 94 1.6 4.8 0.00 0.00 0.00 52 1014.7